Simultaneous Nadir Overpasses (SNOs) Predictions

Prediction of SNOs between GOES-17 and LANDSAT-8 Satellite Orbit:

Table of predicted SNOs for the next 14.0 days since TLE Epoch: 7/9/2022
Index Date Time (GOES-17) GOES-17 Lat,Lon LANDSAT-8 Lat,Lon Distance(km) Time Diff (sec)
1 07/10/2022 19:22:43 0.01,-137.26 -0.02,-137.21 6.53 80
2 07/12/2022 19:10:31 0.02,-137.27 -0.63,-134.25 343.85 80
3 07/13/2022 07:29:15 -0.01,-137.27 -0.48,-139.44 246.18 80
4 07/15/2022 07:17:03 -0.01,-137.28 0.14,-136.47 90.78 80
5 07/15/2022 19:38:19 0.01,-137.27 0.92,-141.64 495.74 80
6 07/17/2022 07:07:32 -0.00,-137.28 0.82,-133.52 427.44 80
7 07/17/2022 19:26:07 -0.00,-137.27 0.30,-138.67 159.03 80
8 07/19/2022 19:16:35 -0.00,-137.27 -0.33,-135.71 177.73 80
9 07/20/2022 07:35:19 0.01,-137.28 -0.77,-140.90 412.18 80
10 07/22/2022 07:25:47 -0.00,-137.27 -0.13,-137.94 75.81 80
